Regional Weather Roundup
Issued by NWS Charleston, WV

Home | Current Version | Previous Version | Graphics & Text | Print | Product List | Glossary On
Versions: 1 2 3 4 5 6 7 8 9 10 11 12 13 14 15 16 17 18 19 20 21 22 23 24 25 26 27 28 29 30 31 32 33 34 35 36 37 38 39 40 41 42 43 44 45 46 47 48 49 50
000
ASUS41 KRLX 260910
RWRRLX
West Virginia Regional Weather Roundup
National Weather Service Charleston WV
400 AM EST MON JAN 26 2015

Note: "fair" indicates few or no clouds below 12,000 feet with no
significant weather and/or obstructions to visibility.

WVZ003-261000-
Northern Panhandle of West Virginia

CITY           SKY/WX    TMP DP  RH WIND       PRES   REMARKS
WHEELING       CLOUDY    28  26  92 NE9       29.68F
$$

WVZ009-261000-
Northwest West Virginia

CITY           SKY/WX    TMP DP  RH WIND       PRES   REMARKS
PARKERSBURG    LGT RAIN  36  35  96 CALM      29.69F FOG
$$

WVZ006-261000-
Western West Virginia

CITY           SKY/WX    TMP DP  RH WIND       PRES   REMARKS
HUNTINGTON     FOG       39  39 100 N3        29.62F VSB 1/2
$$

WVZ015-261000-
West Central West Virginia

CITY           SKY/WX    TMP DP  RH WIND       PRES   REMARKS
CHARLESTON     LGT RAIN  39  38  96 NE3       29.62F FOG
$$

WVZ022-031-261000-
North Central West Virginia

CITY           SKY/WX    TMP DP  RH WIND       PRES   REMARKS
CLARKSBURG     LGT RAIN  35  35 100 N6        29.64F FOG
MORGANTOWN     MIX PCPN  34  31  88 N3        29.67F VSB 1
$$

WVZ025-035-042-045-261000-
Southern West Virginia

CITY           SKY/WX    TMP DP  RH WIND       PRES   REMARKS
BECKLEY        CLOUDY    38  31  76 SE5       29.60F
LOGAN          CLOUDY    39  39 100 CALM      29.60F
BLUEFIELD      CLOUDY    40  28  62 CALM      29.60F
LEWISBURG      MIX PCPN  35  33  92 N5        29.64F
$$

WVZ047-261000-
Northern Mountains of West Virginia

CITY           SKY/WX    TMP DP  RH WIND       PRES   REMARKS
ELKINS         LGT RAIN  34  34 100 CALM      29.64F FOG
$$

WVZ052-261000-
Eastern Panhandle of West Virginia

CITY           SKY/WX    TMP DP  RH WIND       PRES   REMARKS
MARTINSBURG    CLOUDY    35  32  88 N8        29.77F FOG
PETERSBURG     MIX PCPN  36  36 100 NW3       29.73F
$$



USA.gov is the U.S. government's official web portal to all federal, state and local government web resources and services.